This is the latest recevied weather packets stored in our database for station/object WX7EM. If no packets are shown the sender has not sent any weather packets the latest 10 day(s).
| Time | Temp. | Humidity | Pressure | Rain* | Wind** | Luminosity | Snow |
|---|---|---|---|---|---|---|---|
| 1778205653 | 21.67° C | 52% | 1015.1 hPa | 0 mm | - | 67 W/m² | - |
| 1778205351 | 22.22° C | 51% | 1014.9 hPa | 0 mm | - | 83 W/m² | - |
| 1778205047 | 21.67° C | 51% | 1015.3 hPa | 0 mm | - | 109 W/m² | - |
| 1778204744 | 22.22° C | 50% | 1015.2 hPa | 0 mm | - | 116 W/m² | - |
| 1778204440 | 22.22° C | 50% | 1015.1 hPa | 0 mm | - | 125 W/m² | - |
| 1778204136 | 22.22° C | 50% | 1015.3 hPa | 0 mm | - | 133 W/m² | - |
| 1778203833 | 22.22° C | 50% | 1015.5 hPa | 0 mm | - | 135 W/m² | - |
| 1778203531 | 21.67° C | 50% | 1015.5 hPa | 0 mm | - | 146 W/m² | - |
| 1778203228 | 22.22° C | 49% | 1015.5 hPa | 0 mm | - | 162 W/m² | - |
| 1778202926 | 22.22° C | 51% | 1015.5 hPa | 0 mm | - | 175 W/m² | - |
| 1778202623 | 22.22° C | 50% | 1015.4 hPa | 0 mm | - | 186 W/m² | - |
| 1778202320 | 22.22° C | 47% | 1015.5 hPa | 0 mm | - | 198 W/m² | - |
| 1778202018 | 22.78° C | 48% | 1015.5 hPa | 0 mm | - | 210 W/m² | - |
| 1778201714 | 22.22° C | 48% | 1015.7 hPa | 0 mm | - | 221 W/m² | - |
| 1778201411 | 22.22° C | 47% | 1015.7 hPa | 0 mm | - | 234 W/m² | - |
| 1778201107 | 22.22° C | 47% | 1015.7 hPa | 0 mm | - | 246 W/m² | - |
| 1778200804 | 22.22° C | 48% | 1015.6 hPa | 0 mm | - | 258 W/m² | - |
| 1778200500 | 21.67° C | 48% | 1015.7 hPa | 0 mm | - | 160 W/m² | - |
| 1778200197 | 21.67° C | 49% | 1015.6 hPa | 0 mm | - | 102 W/m² | - |
| 1778199893 | 21.67° C | 44% | 1015.6 hPa | 0 mm | - | 68 W/m² | - |
| 1778199590 | 21.67° C | 47% | 1015.5 hPa | 0 mm | - | 181 W/m² | - |
| 1778199286 | 21.67° C | 49% | 1015.8 hPa | 0 mm | - | 201 W/m² | - |
| 1778198983 | 21.11° C | 49% | 1015.7 hPa | 0 mm | - | 84 W/m² | - |
| 1778198679 | 21.67° C | 50% | 1015.7 hPa | 0 mm | - | 110 W/m² | - |
| 1778198376 | 21.67° C | 47% | 1015.9 hPa | 0 mm | - | 230 W/m² | - |
* Rain latest hour (hover to see other rain measurements)
** Current wind speed in m/s (hover to see current wind gust speed)